Погода в Ломатах

Россия / Республика Мордовия     54°22′16″N   46°07′44″E
темп.,
°C
ветер,
м/с
пор.,
м/с
влажн.,
%
обл.,
%
осадки,
мм/ч
давл.,
гПа
погр.,
м
1 августа, вс
вс100:00+18ююз22835 0.0 101041
03:00+17ююз239236 0.0 101142
06:00+18юз2583100 0.0 1012166
09:00+23з3562100 0.0 1013503
12:00+27з3548100 0.0 10131324
15:00+28зюз374716 0.0 10122250
18:00+25зсз2266100 0.0 101255
21:00+20юз1171100 0.0 101311
2 августа, пн
пн200:00+18ю1181100 0.0 101311
03:00+17ююз228628 0.0 101417
06:00+20ю237934 0.0 101485
09:00+26ююз355568 0.0 1014445
12:00+31ююз35380 0.0 10131574
15:00+32ююз35357 0.0 10122499
18:00+29ююв115493 0.0 101012
21:00+23вюв22675 0.0 101020
3 августа, вт
вт300:00+20юв227292 0.0 101032
03:00+20юв356542 0.0 100978
06:00+21ююз286425 0.0 1009174
09:00+28ююз494611 0.0 1008422
12:00+32юз693892 0.0 10081411
15:00+31зюз51143100 0.0 10091647
18:00+26зсз126415 0.0 100737
21:00+20сз118096 0.6 100914
4 августа, ср
ср400:00+19зсз4897100 13.3 1010467
03:00+17ююз2398100 16.2 101094
06:00+18з269498 0.0 1011275
09:00+20сз348296 0.0 1012686
12:00+23зсз4563100 0.1 10121312
15:00+25сз464992 0.1 10121984
18:00+21сз3866100 0.0 1013287
21:00+20сз226844 0.0 101442
5 августа, чт
чт500:00+18сз2373100 0.0 101563
03:00+19с1163100 0.0 101520
06:00+18сз1269100 0.0 101660
09:00+21сз235857 0.0 1017642
12:00+23ссз34475 0.0 10171374
15:00+24ссз454011 0.0 10172261
18:00+21ссз255948 0.0 1017137
21:00+17с22604 0.0 101712